EN

Hourly Weather Lachowiec

Today, 29 July, Thursday

Time Temperature Precipitation Wind Pressure Humidity
00:00 +20°C° 0.7 mm 3 mps 749 mmHg 91%
01:00 +20°C° 0.7 mm 3 mps 749 mmHg 92%
02:00 +19°C° 0.1 mm 3 mps 749 mmHg 93%
03:00 +19°C° 0.1 mm 3 mps 749 mmHg 94%
04:00 +18°C° 0.1 mm 3 mps 749 mmHg 95%
05:00 +19°C° 0 mm 3 mps 749 mmHg 89%
06:00 +20°C° 0 mm 4 mps 749 mmHg 83%
07:00 +21°C° 0 mm 4 mps 749 mmHg 78%
08:00 +22°C° 0 mm 5 mps 749 mmHg 71%
09:00 +25°C° 0 mm 5 mps 749 mmHg 64%
10:00 +26°C° 0 mm 5 mps 749 mmHg 57%
11:00 +26°C° 0 mm 5 mps 749 mmHg 55%
12:00 +26°C° 0 mm 6 mps 749 mmHg 53%
13:00 +27°C° 0 mm 6 mps 749 mmHg 52%
14:00 +26°C° 0 mm 5 mps 749 mmHg 50%
15:00 +26°C° 0 mm 5 mps 749 mmHg 49%
16:00 +26°C° 0 mm 5 mps 749 mmHg 48%
17:00 +25°C° 0 mm 5 mps 748 mmHg 50%
18:00 +23°C° 0 mm 4 mps 748 mmHg 53%
19:00 +22°C° 0 mm 4 mps 748 mmHg 55%
20:00 +21°C° 0 mm 4 mps 749 mmHg 58%
21:00 +19°C° 0 mm 3 mps 749 mmHg 60%
22:00 +18°C° 0 mm 3 mps 749 mmHg 63%
23:00 +18°C° 0 mm 3 mps 749 mmHg 63%

Tomorrow, 30 July, Friday

Time Temperature Precipitation Wind Pressure Humidity
00:00 +18°C° 0 mm 3 mps 749 mmHg 63%
01:00 +18°C° 0 mm 3 mps 749 mmHg 63%
02:00 +17°C° 0 mm 3 mps 749 mmHg 65%
03:00 +17°C° 0 mm 3 mps 749 mmHg 67%
04:00 +16°C° 0 mm 3 mps 749 mmHg 70%
05:00 +17°C° 0 mm 3 mps 749 mmHg 67%
06:00 +19°C° 0 mm 4 mps 749 mmHg 63%
07:00 +20°C° 0 mm 5 mps 749 mmHg 60%
08:00 +21°C° 0 mm 5 mps 749 mmHg 56%
09:00 +22°C° 0 mm 5 mps 749 mmHg 51%
10:00 +24°C° 0 mm 6 mps 748 mmHg 46%
11:00 +24°C° 0 mm 6 mps 748 mmHg 45%
12:00 +26°C° 0 mm 6 mps 748 mmHg 44%
13:00 +27°C° 0 mm 6 mps 748 mmHg 43%
14:00 +27°C° 0 mm 6 mps 747 mmHg 43%
15:00 +27°C° 0 mm 5 mps 747 mmHg 44%
16:00 +27°C° 0 mm 5 mps 747 mmHg 45%
17:00 +25°C° 0 mm 4 mps 747 mmHg 50%
18:00 +24°C° 0 mm 3 mps 747 mmHg 55%
19:00 +22°C° 0 mm 3 mps 747 mmHg 60%
20:00 +21°C° 0 mm 3 mps 747 mmHg 61%
21:00 +20°C° 0 mm 2 mps 747 mmHg 62%
22:00 +19°C° 0 mm 2 mps 747 mmHg 62%
23:00 +18°C° 0 mm 2 mps 747 mmHg 62%

Day after tomorrow, 31 July, Saturday

Time Temperature Precipitation Wind Pressure Humidity
00:00 +19°C° 0 mm 1 mps 747 mmHg 62%
01:00 +18°C° 0 mm 1 mps 747 mmHg 63%
02:00 +18°C° 0 mm 1 mps 747 mmHg 63%
03:00 +18°C° 0 mm 1 mps 747 mmHg 64%
04:00 +17°C° 0 mm 2 mps 747 mmHg 64%
05:00 +18°C° 0 mm 2 mps 746 mmHg 63%
06:00 +20°C° 0 mm 2 mps 746 mmHg 62%
07:00 +21°C° 0 mm 3 mps 746 mmHg 62%
08:00 +22°C° 0.2 mm 3 mps 746 mmHg 63%
09:00 +23°C° 0.2 mm 4 mps 746 mmHg 64%
10:00 +25°C° 0.2 mm 4 mps 746 mmHg 65%
11:00 +26°C° 0 mm 5 mps 746 mmHg 63%
12:00 +26°C° 0 mm 5 mps 746 mmHg 60%
13:00 +27°C° 0 mm 5 mps 746 mmHg 57%
14:00 +27°C° 0 mm 5 mps 745 mmHg 53%
15:00 +28°C° 0 mm 6 mps 745 mmHg 50%
16:00 +28°C° 0 mm 6 mps 745 mmHg 46%
17:00 +26°C° 0 mm 5 mps 745 mmHg 49%
18:00 +25°C° 0 mm 4 mps 745 mmHg 52%
19:00 +22°C° 0 mm 4 mps 745 mmHg 55%
20:00 +21°C° 0 mm 3 mps 746 mmHg 57%
21:00 +19°C° 0 mm 3 mps 746 mmHg 59%
22:00 +18°C° 0 mm 3 mps 747 mmHg 61%
23:00 +17°C° 0 mm 3 mps 747 mmHg 63%

1 August, Sunday

Time Temperature Precipitation Wind Pressure Humidity
00:00 +17°C° 0 mm 3 mps 747 mmHg 65%
01:00 +16°C° 0 mm 3 mps 747 mmHg 66%
02:00 +16°C° 0 mm 3 mps 747 mmHg 68%
03:00 +14°C° 0 mm 3 mps 747 mmHg 69%
04:00 +14°C° 0 mm 3 mps 747 mmHg 71%
05:00 +16°C° 0 mm 3 mps 747 mmHg 68%
06:00 +18°C° 0 mm 3 mps 748 mmHg 65%
07:00 +19°C° 0 mm 4 mps 748 mmHg 63%
08:00 +20°C° 0 mm 4 mps 748 mmHg 59%
09:00 +22°C° 0 mm 4 mps 748 mmHg 56%
10:00 +23°C° 0 mm 4 mps 748 mmHg 53%
11:00 +23°C° 0 mm 4 mps 748 mmHg 51%
12:00 +25°C° 0 mm 3 mps 748 mmHg 50%
13:00 +25°C° 0 mm 3 mps 748 mmHg 49%
14:00 +24°C° 0.1 mm 3 mps 748 mmHg 54%
15:00 +22°C° 0.1 mm 3 mps 747 mmHg 59%
16:00 +21°C° 0.1 mm 3 mps 747 mmHg 64%
17:00 +20°C° 0 mm 3 mps 747 mmHg 68%
18:00 +19°C° 0 mm 2 mps 747 mmHg 72%
19:00 +18°C° 0 mm 2 mps 746 mmHg 76%
20:00 +18°C° 0.2 mm 2 mps 746 mmHg 77%
21:00 +18°C° 0.2 mm 2 mps 746 mmHg 77%
22:00 +19°C° 0.2 mm 1 mps 746 mmHg 78%
23:00 +17°C° 0.1 mm 2 mps 746 mmHg 81%

2 August, Monday

Time Temperature Precipitation Wind Pressure Humidity
00:00 +17°C° 0.1 mm 2 mps 746 mmHg 83%
01:00 +17°C° 0.1 mm 2 mps 746 mmHg 86%
02:00 +16°C° 0.8 mm 2 mps 746 mmHg 89%
03:00 +16°C° 0.8 mm 3 mps 746 mmHg 92%
04:00 +16°C° 0.8 mm 3 mps 746 mmHg 95%
05:00 +16°C° 0.3 mm 3 mps 746 mmHg 91%
06:00 +17°C° 0.3 mm 3 mps 746 mmHg 88%
07:00 +18°C° 0.3 mm 4 mps 746 mmHg 84%
08:00 +19°C° 0.4 mm 5 mps 746 mmHg 78%
09:00 +20°C° 0.4 mm 5 mps 746 mmHg 72%
10:00 +22°C° 0.4 mm 6 mps 746 mmHg 66%
11:00 +22°C° 0.3 mm 7 mps 746 mmHg 64%
12:00 +22°C° 0.3 mm 7 mps 746 mmHg 61%
13:00 +22°C° 0.3 mm 8 mps 746 mmHg 59%
14:00 +23°C° 0.1 mm 7 mps 747 mmHg 53%
15:00 +23°C° 0.1 mm 7 mps 747 mmHg 46%
16:00 +23°C° 0.1 mm 7 mps 747 mmHg 40%
17:00 +22°C° 0 mm 6 mps 747 mmHg 44%
18:00 +21°C° 0 mm 5 mps 747 mmHg 47%
19:00 +19°C° 0 mm 4 mps 747 mmHg 51%
20:00 +18°C° 0 mm 3 mps 748 mmHg 54%
21:00 +17°C° 0 mm 3 mps 748 mmHg 57%
22:00 +16°C° 0 mm 3 mps 749 mmHg 60%
23:00 +14°C° 0 mm 3 mps 749 mmHg 64%

3 August, Tuesday

Time Temperature Precipitation Wind Pressure Humidity
00:00 +14°C° 0 mm 3 mps 749 mmHg 69%
01:00 +13°C° 0 mm 3 mps 749 mmHg 73%
02:00 +12°C° 0 mm 3 mps 749 mmHg 76%
03:00 +12°C° 0 mm 3 mps 750 mmHg 78%
04:00 +12°C° 0 mm 3 mps 750 mmHg 81%
05:00 +13°C° 0 mm 4 mps 750 mmHg 76%
06:00 +15°C° 0 mm 5 mps 750 mmHg 71%
07:00 +16°C° 0 mm 5 mps 751 mmHg 67%
08:00 +19°C° 0 mm 5 mps 751 mmHg 61%
09:00 +20°C° 0 mm 5 mps 751 mmHg 55%
10:00 +21°C° 0 mm 5 mps 751 mmHg 48%
11:00 +22°C° 0 mm 5 mps 751 mmHg 45%
12:00 +23°C° 0 mm 5 mps 751 mmHg 42%
13:00 +25°C° 0 mm 5 mps 751 mmHg 39%
14:00 +25°C° 0 mm 5 mps 750 mmHg 39%
15:00 +25°C° 0 mm 4 mps 750 mmHg 39%
16:00 +25°C° 0 mm 4 mps 750 mmHg 39%
17:00 +23°C° 0.1 mm 4 mps 750 mmHg 46%
18:00 +21°C° 0.1 mm 3 mps 749 mmHg 53%
19:00 +20°C° 0.1 mm 3 mps 749 mmHg 59%
20:00 +19°C° 1.6 mm 3 mps 749 mmHg 71%
21:00 +17°C° 1.6 mm 3 mps 750 mmHg 83%
22:00 +16°C° 1.6 mm 3 mps 750 mmHg 94%
23:00 +14°C° 0.3 mm 3 mps 750 mmHg 95%
Show more